Regional Weather Roundup
Issued by NWS New Orleans/Baton Rouge, LA

Home | Current Version | Previous Version | Text Only | Print | Product List | Glossary On
Versions: 1 2 3 4 5 6 7 8 9 10 11 12 13 14 15 16 17 18 19 20 21 22 23 24 25 26 27 28 29 30 31 32 33 34 35 36 37 38 39 40 41 42 43 44 45 46 47 48 49 50
224
ASUS44 KLIX 191601
RWRLIX
NEW ORLEANS REGIONAL WEATHER ROUNDUP
NATIONAL WEATHER SERVICE NEW ORLEANS LA
1100 AM CDT TUE AUG 19 2014

NOTE: "FAIR" INDICATES FEW OR NO CLOUDS BELOW 12,000 FEET WITH NO
      SIGNIFICANT WEATHER AND/OR OBSTRUCTIONS TO VISIBILITY.
      SKY/WX - SKY CONDITION AND SIGNIFICANT WEATHER.
      TMP - AIR TEMPERATURE.     DP    - DEWPOINT TEMPERATURE.
      RH  - RELATIVE HUMIDITY.   PRES  - PRESSURE.
      HI  - HEAT INDEX.          WCI   - WIND CHILL INDEX.

*  THESE STATIONS ARE NOT NWS OR FAA STATIONS AND ARE NOT UNDER
   NWS QUALITY CONTROL.

LAZ038-040-048-061>063-065>067-069-191700-
SOUTHEAST LOUISIANA

CITY           SKY/WX    TMP DP  RH WIND       PRES   REMARKS
N.O. AUDUBON   NOT AVBL
N.O. INTL ARPT MOSUNNY   89  75  63 SW7       30.02S HX  99
N.O. LAKEFRONT MOSUNNY   87  76  69 NW6       30.03S HX  97
N.O. DOWNTOWN*   N/A     90  72  55 SW6       30.03S HX  96
SLIDELL        SUNNY     88  72  58 SW6       30.02S
BATON ROUGE    PTSUNNY   88  75  65 SW8       30.02R HX  97
BOOTHVILLE     SUNNY     87  76  69 SW9       30.05R HX  97
BELLE CHASSE   MOSUNNY   90  71  53 SW9       30.02S HX  96
BOGALUSA*      PTSUNNY   87  74  64 W5        30.03F HX  96
GALLIANO*      NOT AVBL
NEW ROADS*       N/A     88  75  65 W6        30.01F HX  97
GONZALES*      PTSUNNY   86  78  76 W6        30.02R HX  99
HAMMOND*       NOT AVBL
HOUMA*         MOSUNNY   91  72  52 SW7       30.02S HX  98
PORT FOURCHON* NOT AVBL

$$

MSZ070-080>082-191700-
SOUTHERN MISSISSIPPI

CITY           SKY/WX    TMP DP  RH WIND       PRES   REMARKS
MCCOMB         MOSUNNY   87  73  62 SW9       30.02F
GULFPORT       MOSUNNY   89  74  60 W9        30.02R HX  98
BILOXI         MOSUNNY   90  76  64 SW7       30.02S HX 102
PASCAGOULA     MOSUNNY   87  74  64 W6        30.03R HX  95
STENNIS ARPT*  MOSUNNY  N/A N/A N/A W6        30.02S

$$

COASTAL OBSERVATIONS
LAKE AND NEARSHORE STATIONS

STATION/POSITION TIME  TEMP    WIND        PRES    WAVE
                       AIR SEA DIR/SP/G            HT/PER
                 (UTC) (F)     (DEG/KT/KT) (MB)    (FT/S)
PASCAGOULA       1500   87     250/ 12/ 15 1016.5
WAVELAND YACHT   1500   85     280/  4/  7 1016.2
GRAND ISLE       1500   86 85  230/  5/  8 1017.6
SOUTHWEST PASS   1500   86 87  230/  8/ 10 1017.4
NEW CANAL        1500   86 83  330/  3/  5 1017.1
SHELL BEACH      1500   86 81  260/ 10/ 11 1016.8

OFFSHORE STATIONS

STATION/POSITION TIME  TEMP    WIND        PRES    WAVE
                       AIR SEA DIR/SP/G            HT/PER
                 (UTC) (F)     (DEG/KT/KT) (MB)    (FT/S)
64 S DAUPHIN ISL 1507   86 88  240/ 10/ 12 1017.5

$$




USA.gov is the U.S. government's official web portal to all federal, state and local government web resources and services.